Regional Weather Roundup
Issued by NWS

Home | Current Version | Previous Version | Text Only | Print | Product List | Glossary On
Versions: 1 2 3 4 5 6 7 8 9 10 11 12 13 14 15 16 17 18 19 20 21 22 23 24 25 26 27 28 29 30 31 32 33 34 35 36 37 38 39 40 41 42 43 44 45 46 47 48 49 50
324
ASUS43 KDMX 290803
RWRIA

WEATHER ROUNDUP FOR IOWA
NATIONAL WEATHER SERVICE DES MOINES IA
300 AM CDT THU SEP 29 2016

NOTE: "FAIR" INDICATES FEW OR NO CLOUDS BELOW 12,000 FEET WITH NO
SIGNIFICANT WEATHER AND/OR OBSTRUCTIONS TO VISIBILITY.

* - THESE STATIONS ARE NOT NWS STATIONS...THUS NOT UNDER NWS
QUALITY CONTROL.  THEY ALSO DO NOT REPORT WEATHER SUCH
AS PRECIPITATION OR FOG.

IAZ001>003-012>014-020>022-031>034-043>046-290900-
   NORTHWEST IOWA

CITY           SKY/WX    TMP DP  RH WIND       PRES   REMARKS
CARROLL *      CLEAR     48  46  93 N6        30.34S
CHEROKEE *     CLEAR     44  44 100 N3        30.38S
DENISON *      CLEAR     48  46  93 NE6       30.34S FOG
LE MARS *      CLEAR     43  41  93 CALM      30.40R
ORANGE CITY *  CLOUDY    48  45  87 CALM      30.39S
SHELDON *      CLEAR     41  41 100 N5        30.38R
SIOUX CITY     CLEAR     46  44  93 NW5       30.38S
SPENCER        CLEAR     49  47  93 N7        30.38S
STORM LAKE *   CLEAR     48  46  93 N8        30.37S
$$

IAZ055>058-069>071-079>083-090>094-290900-
   SOUTHWEST IOWA

CITY           SKY/WX    TMP DP  RH WIND       PRES   REMARKS
ATLANTIC *     CLEAR     48  46  93 N5        30.34R
AUDUBON *      CLEAR     48  46  93 N5        30.35S
CLARINDA *       N/A     48  46  93 MISG      30.34S
COUNCIL BLFS * CLEAR     48  46  93 N7        30.35S
CRESTON *      CLEAR     50  48  93 N10       30.33R
HARLAN  *      CLEAR     48  46  93 N3        30.38S
LAMONI         CLEAR     50  48  93 NW8       30.30R
RED OAK *      CLEAR     48  46  93 N5        30.34R
SHENANDOAH *   CLEAR     46  45  93 N5        30.34S
$$

IAZ047>049-059>061-072>074-084-290900-
   CENTRAL IOWA

CITY           SKY/WX    TMP DP  RH WIND       PRES   REMARKS
AMES           CLEAR     50  50 100 N7        30.32R
ANKENY *         N/A    N/A N/A N/A MISG        N/A
BOONE *        CLEAR     48  46  93 N7        30.32S
CHARITON *       N/A     50  48  93 N8        30.29R
DES MOINES     CLEAR     54  50  86 N10       30.31R
GRINNELL*      CLEAR     51  48  92 N6        30.29S
KNOXVILLE *    CLEAR     52  48  87 N6        30.28S
MARSHALLTOWN   CLEAR     51  50  96 N7        30.30R
NEWTON *       CLEAR     52  50  93 N9        30.29S
PELLA *        CLEAR     51  48  92 N5        30.30R
PERRY *          N/A     50  49  97 N5        30.33S
$$

IAZ004>006-015-016-023>025-035-036-290900-
   NORTH CENTRAL IOWA

CITY           SKY/WX    TMP DP  RH WIND       PRES   REMARKS
ALGONA *       CLEAR     46  45  93 N6        30.36S
CLARION *      CLEAR     46  46 100 N3        30.34S
ESTHERVILLE    CLEAR     44  44 100 NW6       30.38R
FORT DODGE *   CLEAR     48  43  81 NW5       30.35S
MASON CITY     CLEAR     46  46 100 N5        30.36R
FOREST CITY *    N/A     48  46  93 N6        30.35S
WEBSTER CITY * CLEAR     46  46 100 N5        30.32S
IOWA FALLS *     N/A     51  48  92 N5        30.33S
$$

IAZ007>011-017>019-026>030-037>042-050>054-066-290900-
   NORTHEAST IOWA

CITY           SKY/WX    TMP DP  RH WIND       PRES   REMARKS
CEDAR RAPIDS   CLEAR     51  50  96 N7        30.26R
CHARLES CITY * CLEAR     50  50 100 N7        30.33S
CLINTON *      CLEAR     50  49  96 N12       30.21R
DECORAH *      CLEAR     52  52 100 N5        30.31R
DUBUQUE        CLEAR     50  48  93 N8        30.26R
MONTICELLO *   CLEAR     50  48  93 N5        30.26R
OELWEIN *      CLEAR     50  50 100 NE7       30.30S
WATERLOO       CLEAR     50  48  93 N8        30.30R
$$

IAZ064-065-067-068-078-290900-
   EAST CENTRAL IOWA

CITY           SKY/WX    TMP DP  RH WIND       PRES   REMARKS
DAVENPORT      CLEAR     50  48  93 N9        30.22R
IOWA CITY      CLEAR     54  49  83 N10       30.26S
MUSCATINE *    CLEAR     54  50  87 N12       30.22S
QUAD CITIES    CLEAR     54  48  80 N8        30.19S
$$

IAZ062-063-075>077-085>089-095>099-290900-
   SOUTHEAST IOWA

CITY           SKY/WX    TMP DP  RH WIND       PRES   REMARKS
BURLINGTON     CLEAR     52  50  93 N12       30.20S
FAIRFIELD *    CLEAR     50  48  93 N7        30.24S
FORT MADISON * CLEAR     52  50  93 NW5       30.21F
KEOKUK *       CLEAR     52  50  93 NW8       30.20F
OSKALOOSA *      N/A     49  48  95 N7        30.27S
OTTUMWA        CLEAR     50  46  86 N9        30.27R
WASHINGTON *     N/A    N/A N/A N/A MISG        N/A
$$

ABBREVIATIONS USED IN REMARKS
   TC - TEMPERATURES IN CELSIUS
  WCI - WIND CHILL INDEX
   HX - HEAT INDEX
  VSB - VISIBILITY
$$





USA.gov is the U.S. government's official web portal to all federal, state and local government web resources and services.